Location: Unspecified
(48.2082°N, 0.0000°E)
Time: 12:29:52
(UTC+00:00)

A-11 Canister half - Pass Details

Date: 29 June 2019
Orbit: 1514 x 1685 km, 47.2° (Epoch: 19 July)

Event Time Altitude Azimuth Distance (km) Brightness Sun altitude
Rises 10:50:48 0° 259° (W) 4,913 11.5 61.2°
Reaches altitude 10° 10:53:58 10° 259° (WSW) 3,911 11.1 61.5°
Maximum altitude 11:04:00 84° 173° (S) 1,634 10.8 62.4°
Drops below altitude 10° 11:13:41 10° 87° (E) 3,781 11.3 63.1°
Sets 11:16:43 0° 87° (E) 4,744 11.7 63.4°
